Hourly Weather Rudno

Today, 21 April, Wednesday

Time Temperature Precipitation Wind Pressure Humidity
00:00 +6°C° 0 mm 2 mps 754 mmHg 78%
01:00 +5°C° 0 mm 2 mps 754 mmHg 80%
02:00 +5°C° 0 mm 2 mps 754 mmHg 81%
03:00 +5°C° 0 mm 2 mps 754 mmHg 82%
04:00 +4°C° 0 mm 2 mps 753 mmHg 83%
05:00 +6°C° 0 mm 2 mps 753 mmHg 78%
06:00 +7°C° 0 mm 2 mps 753 mmHg 72%
07:00 +8°C° 0 mm 2 mps 753 mmHg 67%
08:00 +10°C° 0 mm 3 mps 753 mmHg 61%
09:00 +12°C° 0 mm 3 mps 753 mmHg 55%
10:00 +13°C° 0 mm 4 mps 753 mmHg 48%
11:00 +14°C° 0 mm 5 mps 753 mmHg 47%
12:00 +14°C° 0 mm 5 mps 752 mmHg 46%
13:00 +14°C° 0 mm 6 mps 752 mmHg 45%
14:00 +13°C° 0 mm 6 mps 752 mmHg 51%
15:00 +11°C° 0 mm 6 mps 752 mmHg 58%
16:00 +10°C° 0 mm 7 mps 752 mmHg 65%
17:00 +9°C° 0 mm 6 mps 752 mmHg 64%
18:00 +7°C° 0 mm 6 mps 752 mmHg 64%
19:00 +6°C° 0 mm 5 mps 752 mmHg 63%
20:00 +4°C° 0 mm 6 mps 752 mmHg 63%
21:00 +4°C° 0 mm 6 mps 752 mmHg 63%
22:00 +3°C° 0 mm 6 mps 752 mmHg 63%
23:00 +2°C° 0 mm 6 mps 752 mmHg 66%

Tomorrow, 22 April, Thursday

Time Temperature Precipitation Wind Pressure Humidity
00:00 +2°C° 0 mm 6 mps 752 mmHg 69%
01:00 0°C° 0 mm 7 mps 752 mmHg 71%
02:00 0°C° 0 mm 7 mps 752 mmHg 71%
03:00 +2°C° 0 mm 7 mps 752 mmHg 71%
04:00 +2°C° 0 mm 7 mps 752 mmHg 72%
05:00 +2°C° 0 mm 7 mps 752 mmHg 73%
06:00 +3°C° 0 mm 7 mps 752 mmHg 73%
07:00 +3°C° 0 mm 7 mps 752 mmHg 74%
08:00 +2°C° 0.3 mm 8 mps 752 mmHg 72%
09:00 +3°C° 0.3 mm 9 mps 752 mmHg 69%
10:00 +3°C° 0.3 mm 9 mps 752 mmHg 66%
11:00 +5°C° 0.2 mm 10 mps 753 mmHg 63%
12:00 +5°C° 0.2 mm 10 mps 753 mmHg 60%
13:00 +5°C° 0.2 mm 10 mps 754 mmHg 58%
14:00 +5°C° 0.1 mm 9 mps 754 mmHg 57%
15:00 +5°C° 0.1 mm 9 mps 754 mmHg 57%
16:00 +5°C° 0.1 mm 9 mps 754 mmHg 56%
17:00 +4°C° 0 mm 8 mps 755 mmHg 59%
18:00 +4°C° 0 mm 7 mps 755 mmHg 61%
19:00 +3°C° 0 mm 7 mps 756 mmHg 64%
20:00 +3°C° 0 mm 6 mps 756 mmHg 65%
21:00 +3°C° 0 mm 5 mps 756 mmHg 65%
22:00 +3°C° 0 mm 4 mps 756 mmHg 66%
23:00 +3°C° 0.1 mm 4 mps 756 mmHg 69%

Day after tomorrow, 23 April, Friday

Time Temperature Precipitation Wind Pressure Humidity
00:00 +1°C° 0.1 mm 4 mps 756 mmHg 71%
01:00 +1°C° 0.1 mm 4 mps 756 mmHg 74%
02:00 0°C° 0 mm 4 mps 756 mmHg 78%
03:00 0°C° 0 mm 4 mps 756 mmHg 83%
04:00 0°C° 0 mm 3 mps 756 mmHg 87%
05:00 0°C° 0.2 mm 4 mps 756 mmHg 86%
06:00 +1°C° 0.2 mm 4 mps 756 mmHg 85%
07:00 +3°C° 0.2 mm 4 mps 756 mmHg 83%
08:00 +3°C° 0.3 mm 5 mps 757 mmHg 70%
09:00 +4°C° 0.3 mm 6 mps 757 mmHg 57%
10:00 +5°C° 0.3 mm 6 mps 758 mmHg 44%
11:00 +5°C° 0 mm 7 mps 758 mmHg 46%
12:00 +5°C° 0 mm 8 mps 758 mmHg 47%
13:00 +5°C° 0 mm 9 mps 759 mmHg 49%
14:00 +5°C° 0.2 mm 8 mps 759 mmHg 47%
15:00 +5°C° 0.2 mm 8 mps 759 mmHg 45%
16:00 +5°C° 0.2 mm 7 mps 759 mmHg 44%
17:00 +4°C° 0 mm 6 mps 760 mmHg 49%
18:00 +3°C° 0 mm 6 mps 760 mmHg 55%
19:00 +2°C° 0 mm 5 mps 760 mmHg 61%
20:00 +2°C° 0 mm 5 mps 760 mmHg 61%
21:00 +2°C° 0 mm 5 mps 760 mmHg 62%
22:00 +2°C° 0 mm 5 mps 761 mmHg 63%
23:00 +1°C° 0 mm 4 mps 761 mmHg 67%

24 April, Saturday

Time Temperature Precipitation Wind Pressure Humidity
00:00 0°C° 0 mm 4 mps 761 mmHg 71%
01:00 +1°C° 0 mm 3 mps 761 mmHg 76%
02:00 +1°C° 0 mm 3 mps 761 mmHg 77%
03:00 0°C° 0 mm 3 mps 761 mmHg 79%
04:00 0°C° 0 mm 3 mps 761 mmHg 81%
05:00 +1°C° 0 mm 3 mps 761 mmHg 75%
06:00 +3°C° 0 mm 3 mps 761 mmHg 69%
07:00 +4°C° 0 mm 3 mps 761 mmHg 63%
08:00 +5°C° 0 mm 4 mps 761 mmHg 55%
09:00 +6°C° 0 mm 4 mps 761 mmHg 47%
10:00 +7°C° 0 mm 5 mps 761 mmHg 38%
11:00 +7°C° 0 mm 5 mps 761 mmHg 40%
12:00 +7°C° 0 mm 5 mps 761 mmHg 42%
13:00 +7°C° 0 mm 6 mps 761 mmHg 43%
14:00 +7°C° 0 mm 6 mps 761 mmHg 42%
15:00 +5°C° 0 mm 6 mps 761 mmHg 41%
16:00 +5°C° 0 mm 6 mps 762 mmHg 39%
17:00 +5°C° 0 mm 5 mps 762 mmHg 46%
18:00 +3°C° 0 mm 4 mps 762 mmHg 52%
19:00 +2°C° 0 mm 3 mps 762 mmHg 58%
20:00 +2°C° 0 mm 3 mps 763 mmHg 64%
21:00 +2°C° 0 mm 2 mps 763 mmHg 70%
22:00 +1°C° 0 mm 2 mps 763 mmHg 76%
23:00 +1°C° 0 mm 2 mps 763 mmHg 78%

25 April, Sunday

Time Temperature Precipitation Wind Pressure Humidity
00:00 +1°C° 0 mm 2 mps 763 mmHg 79%
01:00 +1°C° 0 mm 2 mps 763 mmHg 81%
02:00 -1°C° 0 mm 2 mps 763 mmHg 81%
03:00 -1°C° 0 mm 2 mps 763 mmHg 81%
04:00 -1°C° 0 mm 3 mps 763 mmHg 82%
05:00 +1°C° 0 mm 3 mps 762 mmHg 74%
06:00 +3°C° 0 mm 4 mps 762 mmHg 67%
07:00 +3°C° 0 mm 5 mps 762 mmHg 60%
08:00 +4°C° 0 mm 6 mps 762 mmHg 54%
09:00 +5°C° 0 mm 6 mps 762 mmHg 48%
10:00 +5°C° 0 mm 7 mps 763 mmHg 42%
11:00 +5°C° 0 mm 7 mps 762 mmHg 42%
12:00 +6°C° 0 mm 7 mps 762 mmHg 43%
13:00 +6°C° 0 mm 7 mps 762 mmHg 43%
14:00 +6°C° 0.1 mm 7 mps 762 mmHg 47%
15:00 +5°C° 0.1 mm 6 mps 762 mmHg 51%
16:00 +5°C° 0.1 mm 6 mps 762 mmHg 54%
17:00 +5°C° 0 mm 5 mps 762 mmHg 60%
18:00 +4°C° 0 mm 4 mps 762 mmHg 65%
19:00 +3°C° 0 mm 3 mps 762 mmHg 71%
20:00 +3°C° 0 mm 3 mps 762 mmHg 76%
21:00 +2°C° 0 mm 3 mps 762 mmHg 80%
22:00 +2°C° 0 mm 2 mps 762 mmHg 85%
23:00 +2°C° 0 mm 2 mps 761 mmHg 87%

26 April, Monday

Time Temperature Precipitation Wind Pressure Humidity
00:00 +1°C° 0 mm 2 mps 761 mmHg 88%
01:00 +1°C° 0 mm 2 mps 761 mmHg 90%
02:00 +1°C° 0 mm 2 mps 761 mmHg 90%
03:00 +1°C° 0 mm 2 mps 761 mmHg 91%
04:00 -1°C° 0 mm 2 mps 761 mmHg 92%
05:00 +2°C° 0 mm 2 mps 761 mmHg 84%
06:00 +4°C° 0 mm 2 mps 761 mmHg 77%
07:00 +5°C° 0 mm 2 mps 761 mmHg 69%
08:00 +7°C° 0 mm 2 mps 761 mmHg 60%
09:00 +8°C° 0 mm 2 mps 761 mmHg 50%
10:00 +10°C° 0 mm 3 mps 760 mmHg 41%
11:00 +10°C° 0 mm 2 mps 760 mmHg 39%
12:00 +12°C° 0 mm 2 mps 760 mmHg 38%
13:00 +13°C° 0 mm 2 mps 759 mmHg 36%
14:00 +13°C° 0 mm 2 mps 759 mmHg 36%
15:00 +13°C° 0 mm 2 mps 758 mmHg 37%
16:00 +13°C° 0 mm 1 mps 758 mmHg 37%
17:00 +11°C° 0 mm 1 mps 758 mmHg 44%
18:00 +10°C° 0 mm 1 mps 757 mmHg 51%
19:00 +8°C° 0 mm 1 mps 757 mmHg 57%
20:00 +7°C° 0 mm 2 mps 757 mmHg 58%
21:00 +6°C° 0 mm 2 mps 756 mmHg 59%
22:00 +5°C° 0 mm 2 mps 756 mmHg 60%
23:00 +5°C° 0 mm 2 mps 756 mmHg 61%
Show more